Flag for Canada Weather past 2 weeks in Edmonton, Alberta, Canada

Now
53 °F

Cool.


Feels Like: 52 °F
Forecast: 51 / 72 °F
Wind: 3 mph from Southwest

Location: Edmonton Municipal

Current Time: Aug 30, 2015 at 5:05:45 AM

Latest Report: Aug 30, 2015 at 4:00 AM


Visibility: N/A

Pressure: 29.47 "Hg (27.12 "Hg at 692m altitude)

Humidity: 84%

Dew point: 48 °F

Location of EdmontonLocation

Historic Weather in Edmonton — Graph

°F

Edmonton temperature yesterday

Maximum temperature yesterday: 79 °F (at 4:00 PM)
Minimum temperature yesterday: 53 °F (at 7:00 AM)
Average temperature yesterday: 68 °F

Past Weeks' High & Low Weather Summary

 TemperatureHumidityPressure
High83 °F (Aug 28, 5:00 PM)95% (Aug 18, 6:00 AM)30.25 "Hg (Aug 18, 6:00 AM)
Low43 °F (Aug 22, 4:00 AM)22% (Aug 28, 1:00 PM)29.40 "Hg (Aug 29, 9:00 PM)
Average61 °F60%29.94 "Hg
* Reported Aug 15 4:00 AM — Aug 30 4:00 AM, Edmonton, Weather by CustomWeather, © 2015

Note: Actual official high and low records may vary slightly from our data, if they occured in-between our weather recording intervals... More about our weather records

Advertising

Edmonton weather history for previous 24 hours

 ConditionsComfort  
Time TempWeatherWind HumidityBarometerVisibility
4:00 AM
Sun, Aug 30
53 °FCool.3 mph84%29.47 "HgN/A
3:00 AM55 °FCool.3 mph82%29.47 "HgN/A
2:00 AM58 °FCool.3 mph82%29.47 "HgN/A
1:00 AM58 °FCool.6 mph81%29.45 "HgN/A
12:00 AM62 °FCool.5 mph75%29.43 "HgN/A
11:00 PM
Sat, Aug 29
69 °FMild.12 mph49%29.42 "HgN/A
10:00 PM71 °FMild.10 mph50%29.41 "HgN/A
9:00 PM73 °FMild.13 mph47%29.40 "HgN/A
8:00 PM74 °FMild.15 mph42%29.41 "HgN/A
7:00 PM76 °FMild.16 mph37%29.44 "HgN/A
6:00 PM79 °FPleasantly warm.17 mph33%29.46 "HgN/A
5:00 PM78 °FPleasantly warm.17 mph32%29.49 "HgN/A
4:00 PM79 °FPleasantly warm.17 mph30%29.54 "HgN/A
3:00 PM76 °FMild.12 mph34%29.59 "HgN/A
2:00 PM73 °FMild.13 mph40%29.65 "HgN/A
1:00 PM71 °FMild.9 mph43%29.68 "HgN/A
12:00 PM68 °FMild.5 mph51%29.72 "HgN/A
11:00 AM66 °FMild.2 mph56%29.75 "HgN/A
10:00 AM62 °FMild.3 mph63%29.75 "HgN/A
9:00 AM59 °FCool.3 mph67%29.76 "HgN/A
8:00 AM58 °FCool.2 mph72%29.75 "HgN/A
7:00 AM53 °FCool.1 mph78%29.76 "HgN/A
6:00 AM58 °FCool.3 mph68%29.75 "HgN/A
5:00 AM59 °FCool.8 mph64%29.73 "HgN/A
Weather by CustomWeather, © 2015

See weather overviewHow to use our weather pages